Zurück zum Katalog

ATLAS 5 CENTAUR DEB

AktivHEO
NORAD 44690·DEBRIS·🇺🇸 United States

Gestartet Oct 17, 2018 von Cape Canaveral Space Force Station

Loading…

Nächste Überflüge (nächste 24 Stunden)

TLE

AktuellSource: Space-Track

Epoche: Sep 12, 2026, 22:16 UTC

1 44690U 18079BC  26255.92844284 -.00000167  00000-0  00000-0 0  9994
2 44690  13.1371  29.0139 4401461 335.4590   8.6644  1.88480858 48756

Verfolge ATLAS 5 CENTAUR DEB in Echtzeit mit AllMySat

Download on the App Store